GFSFLT1_925_rhum_318.txt.gz
RH
99 99 100 99 98 100 99 100 97 94 85 74 81 80 84 75 82 87 88 86 93 90 71 73 84 86 93 82 91 94 91 81 73
98 98 98 100 100 100 100 100 98 90 85 80 82 83 90 82 87 93 90 86 94 96 95 86 78 86 88 88 84 87 80 82 88
98 100 100 100 100 100 99 100 97 87 86 88 83 83 87 85 88 98 99 100 93 96 86 86 87 70 83 83 68 74 79 75 79
98 96 96 96 98 99 100 100 99 90 89 91 85 80 83 87 90 94 97 99 99 99 93 83 87 89 65 76 79 65 64 78 70
94 95 92 90 84 81 74 78 83 87 87 89 87 81 82 83 87 94 95 98 99 98 99 100 96 88 83 87 84 74 71 81 73
74 87 84 78 57 42 44 49 40 47 69 63 75 72 73 76 81 89 92 97 99 98 97 98 90 91 92 79 84 85 71 84 86
16 20 28 36 30 32 32 24 25 29 45 60 62 59 69 73 80 90 94 98 98 100 97 96 98 98 85 86 81 86 84 74 83
32 31 26 24 25 20 16 11 11 16 28 42 48 50 57 72 81 99 100 98 98 95 96 98 94 93 88 80 87 86 81 88 80
32 30 28 25 26 24 22 17 18 13 17 21 22 30 46 72 90 99 100 99 99 100 99 99 91 94 96 96 94 91 94 84 86
32 33 31 29 27 26 24 23 23 21 20 18 23 27 37 72 86 99 99 99 100 100 100 99 99 99 99 100 99 98 99 100 95
34 35 35 31 30 26 26 27 26 25 24 27 26 30 38 57 76 94 96 98 99 100 100 100 100 100 100 100 99 99 100 96 94
37 37 37 36 38 36 32 32 31 28 30 30 31 33 31 38 43 56 74 68 80 92 99 100 100 100 100 100 100 99 99 99 98
39 38 35 38 40 36 34 33 32 35 36 33 34 32 32 37 36 35 37 48 51 43 46 83 98 100 100 100 100 99 99 99 100
39 36 39 38 38 36 37 35 33 35 37 40 40 38 33 34 35 36 36 32 30 28 33 28 33 84 95 97 96 98 99 99 99
41 38 43 43 41 40 40 36 38 35 30 36 39 42 40 37 36 35 37 37 34 30 27 28 29 35 77 91 90 89 95 100 100
41 40 42 43 39 42 43 42 41 41 42 42 42 41 37 38 38 38 37 37 38 36 36 31 33 41 31 86 93 90 89 94 99
44 44 44 42 41 42 43 43 42 44 44 45 40 58 46 40 37 36 34 35 37 38 38 37 38 44 35 70 91 94 90 86 88
45 46 46 46 47 46 44 42 41 44 41 42 46 51 57 46 43 42 37 36 36 40 38 39 38 45 46 52 52 90 91 88 87
47 48 48 47 48 44 47 46 43 40 42 43 42 41 42 53 52 42 41 36 38 40 41 41 40 43 50 56 55 49 90 89 87
50 48 47 48 48 49 50 50 46 46 45 47 43 40 39 37 42 53 41 39 38 39 41 40 42 44 50 51 48 59 80 86 89

GFSFLT1_925_rhum_321.txt.gz
RH
98 98 98 98 99 98 98 87 88 89 75 82 86 92 83 80 80 90 94 86 93 88 93 88 88 83 92 94 95 93 88 80 80
98 98 97 98 98 98 98 98 91 90 80 85 90 88 84 87 88 87 91 95 95 94 89 89 93 92 86 88 88 87 86 81 69
98 98 98 98 98 99 98 98 96 91 88 83 87 86 82 88 90 94 98 96 95 96 95 83 90 90 82 76 81 75 81 85 81
100 100 100 100 99 99 100 100 98 93 91 83 82 85 84 86 90 91 93 97 98 93 90 88 89 75 78 80 63 70 71 78 81
99 96 91 88 83 78 75 85 89 86 86 81 81 80 82 89 92 92 100 94 96 99 98 96 90 80 79 85 73 68 79 71 70
84 86 79 72 63 57 56 52 67 78 73 75 78 80 80 82 86 93 98 100 94 96 99 98 96 89 80 84 81 74 82 80 73
27 37 53 49 50 53 47 35 40 67 75 81 76 74 75 81 93 96 89 96 100 92 99 97 94 86 89 79 81 80 75 84 82
23 21 23 19 18 13 11 14 20 42 61 63 64 73 77 92 98 100 100 95 92 92 88 91 92 94 85 94 88 84 85 78 82
28 25 25 23 20 16 15 12 14 19 31 46 52 64 76 92 99 99 100 99 99 100 99 95 96 97 95 95 93 92 85 88 85
28 26 24 24 22 21 20 19 17 16 21 24 30 60 75 96 99 99 99 100 99 99 100 99 98 98 98 98 97 98 99 97 88
28 28 26 25 24 23 23 22 20 20 19 24 30 54 70 82 96 96 98 99 99 98 99 100 100 99 99 100 99 99 94 92 92
30 27 26 26 24 23 25 26 28 27 28 29 28 36 43 57 69 86 83 88 91 97 100 100 100 100 100 100 100 99 98 98 97
32 30 33 34 32 30 29 32 32 32 32 32 31 30 30 32 34 40 57 69 62 62 76 92 99 100 100 100 100 99 100 99 99
31 30 35 36 31 33 32 33 34 37 38 38 33 33 34 33 30 28 26 28 30 29 44 48 77 87 95 96 99 100 98 99 98
29 32 33 34 34 32 35 35 32 35 39 41 41 39 37 36 35 34 32 29 25 23 21 22 31 58 90 93 92 94 99 100 99
29 33 34 33 33 38 33 36 34 40 40 39 40 39 38 38 38 37 34 36 35 30 25 24 23 22 40 94 94 88 89 97 98
32 31 30 27 31 36 38 33 38 44 42 44 47 60 46 39 38 35 34 36 36 34 30 29 33 31 37 62 92 94 87 84 91
39 39 39 37 34 39 41 38 31 39 43 39 40 59 62 50 43 41 35 35 36 36 35 32 36 38 36 36 53 87 91 88 86
44 45 45 42 38 38 41 41 38 35 42 38 39 40 41 56 54 43 41 37 37 37 38 37 37 39 40 42 50 63 88 90 89
47 44 45 43 36 38 37 42 40 40 41 39 40 40 40 40 47 57 44 39 40 41 39 39 43 44 46 46 38 40 76 82 83

GFSFLT1_925_rhum_327.txt.gz
RH
99 100 96 90 91 93 90 73 68 82 90 84 84 86 79 68 76 85 87 92 96 96 86 91 95 96 95 98 94 94 89 87 92
90 93 96 95 95 95 93 81 80 83 91 92 88 82 81 78 80 84 91 88 97 96 95 94 93 94 93 95 95 91 93 73 66
92 92 94 95 98 98 100 98 84 83 91 92 96 91 90 86 88 96 97 89 92 97 94 94 96 90 92 84 82 93 87 88 80
94 97 98 97 99 99 99 100 98 88 90 92 96 93 89 88 99 94 94 91 94 93 86 94 85 83 80 79 86 85 82 80 78
99 96 99 98 99 100 100 99 100 96 91 92 94 93 89 91 95 98 100 95 92 91 94 76 88 75 65 74 73 82 80 80 82
95 93 90 88 95 94 94 97 96 88 88 88 87 87 89 90 91 94 98 99 100 97 95 92 84 86 75 64 74 72 71 64 68
74 73 74 74 74 75 78 84 87 87 84 85 83 81 84 86 90 90 89 94 99 95 89 88 88 91 83 77 82 75 73 67 63
55 56 57 56 51 39 59 75 80 82 81 82 84 87 87 93 98 100 98 92 83 86 88 88 83 91 86 81 78 83 82 72 70
26 17 15 12 14 19 35 57 69 76 79 82 86 92 96 100 100 100 98 100 99 96 88 85 85 86 89 88 86 80 82 85 80
18 17 15 13 12 12 16 35 57 67 77 85 92 98 100 100 100 99 100 99 99 100 98 99 99 98 98 95 92 92 92 88 87
21 20 18 15 14 12 14 19 36 56 73 86 98 100 100 100 100 100 99 100 100 99 99 98 98 99 98 96 97 98 96 94 91
22 22 21 20 19 16 15 19 24 39 62 76 86 96 96 90 86 90 95 99 98 99 99 99 100 99 99 100 99 99 99 97 97
25 24 24 24 23 21 20 21 24 29 34 46 51 58 67 78 84 81 76 77 85 94 97 99 99 99 99 99 98 98 100 100 100
24 24 25 26 25 25 23 25 22 27 30 30 30 29 29 30 33 48 65 64 60 58 58 77 87 95 98 100 100 98 100 98 100
26 25 27 27 27 29 29 27 29 28 29 32 32 32 30 28 25 24 24 27 42 47 42 42 75 93 91 99 100 100 100 98 98
28 28 28 30 28 31 33 35 34 37 36 34 40 40 38 34 32 31 28 24 22 20 20 21 27 35 85 99 99 98 99 100 99
30 31 32 31 32 35 36 36 42 42 39 40 42 54 41 37 35 35 34 31 28 24 24 24 26 30 43 74 98 96 90 90 94
32 32 32 33 34 36 36 38 38 42 44 40 46 62 53 51 42 37 37 36 32 32 30 30 31 29 29 37 65 93 92 89 86
32 31 32 33 36 36 37 38 38 38 40 42 38 40 45 59 58 46 40 40 38 37 36 35 36 36 35 43 80 87 88 87 85
36 34 33 33 34 34 33 31 30 36 39 37 38 40 41 43 49 58 47 42 43 42 41 41 40 41 39 40 71 80 83 85 85

GFSFLT1_925_rhum_330.txt.gz
RH
100 91 77 85 92 99 97 84 83 97 94 91 87 80 73 75 83 83 95 94 92 95 92 93 95 94 91 92 85 78 85 90 90
97 100 99 94 94 99 91 71 70 80 85 82 82 79 70 70 73 75 88 98 96 95 96 95 95 96 91 93 91 93 96 83 78
96 96 94 94 96 94 98 78 76 78 92 88 88 90 88 86 89 91 86 84 97 96 94 90 92 90 97 92 88 85 89 88 70
99 96 94 95 96 98 94 96 98 94 93 86 89 93 91 90 95 94 95 92 93 97 90 89 91 90 87 84 86 84 80 81 76
94 94 94 97 97 98 99 98 99 94 93 95 94 92 93 99 94 100 97 88 87 94 82 90 79 86 79 83 83 79 77 75 69
93 95 97 98 98 100 99 100 98 95 97 99 99 96 92 95 99 99 100 98 97 95 88 83 86 80 67 75 79 76 70 68 75
92 81 80 84 86 91 96 97 92 93 91 91 90 88 91 91 96 96 90 95 97 87 84 84 84 82 72 77 75 72 65 65 78
73 74 75 74 70 73 82 87 88 90 88 86 85 88 88 98 98 99 96 97 85 85 84 82 82 81 80 81 79 79 72 66 72
47 44 43 36 28 49 66 76 81 84 87 90 94 96 96 97 97 99 98 99 100 96 90 85 89 84 85 80 81 85 81 75 72
16 14 13 12 17 29 50 67 78 86 92 97 99 100 100 100 100 98 99 100 99 99 98 99 94 95 92 91 90 85 86 87 86
17 17 15 14 13 16 30 54 73 86 95 98 100 100 100 100 100 100 100 100 99 98 99 98 100 99 99 98 94 92 91 90 90
19 19 18 16 15 15 20 39 66 82 92 97 98 95 92 90 90 94 98 99 99 99 99 100 98 99 97 99 98 99 98 97 96
20 20 20 20 18 17 19 28 44 63 72 75 77 83 86 82 78 74 74 79 89 95 98 100 99 99 100 98 98 98 99 100 99
20 20 22 23 21 21 20 23 23 33 37 37 36 36 40 49 55 68 73 70 65 62 84 94 98 99 99 100 100 100 98 98 100
22 22 23 24 25 25 24 23 26 26 26 28 28 29 27 25 24 26 32 53 64 62 55 57 70 87 98 100 100 100 100 98 100
24 24 27 28 29 29 27 28 28 34 32 30 35 36 33 29 29 28 24 21 22 25 32 41 44 57 65 92 100 99 100 100 98
25 25 28 31 32 35 32 29 34 39 37 36 38 49 38 35 35 34 30 27 25 23 23 23 24 31 46 80 88 97 94 91 95
27 28 28 30 33 35 37 36 33 38 42 37 38 51 43 48 40 38 36 34 30 30 30 30 31 32 31 34 64 93 91 89 88
30 29 31 32 36 36 38 38 36 34 36 39 38 40 40 55 54 44 42 39 36 35 35 35 34 34 38 59 84 89 89 86 83
32 31 32 33 35 35 36 37 38 37 36 37 38 42 42 43 48 57 47 43 44 41 40 41 41 40 40 51 77 87 88 86 84